Bloomington, IL

7:52 PM CDT on May 23, 2017 (GMT -0500)
Central Ill Regional

Weather History for KBMI - June, 2013

Change the Weather History Date:

Friday, June 28, 2013

  Actual Average Record
Temperature  
Mean Temperature 76 °F -  
Max Temperature 84 °F 87 °F 99 °F (2012)
Min Temperature 68 °F 65 °F 57 °F (2016)
Cooling Degree Days 11    
Growing Degree Days 26 (Base 50)    
Moisture  
Dew Point 62 °F    
Average Humidity 64    
Maximum Humidity 87    
Minimum Humidity 38    
Precipitation  
Precipitation 0.00 in - - ()
Sea Level Pressure  
Sea Level Pressure 29.69 in    
Wind  
Wind Speed 12 mph (WNW)    
Max Wind Speed 22 mph    
Max Gust Speed 33 mph    
Visibility 10 miles    
Events Rain    
Averages and records for this station are not official NWS values.
T = Trace of Precipitation, MM = Missing Value Source: NWS Daily Summary

Daily Weather History Graph

Daily Weather History Graph

Search for Another Location

Airport or City:

Trip Planner

Search our weather history database for the weather conditions in past years. The results will help you decide how hot, cold, wet, or windy it might be!

Date:

Astronomy

Jun. 28, 2013 Rise Set
Actual Time 5:27 AM CDT 8:30 PM CDT
Civil Twilight 4:54 AM CDT 9:03 PM CDT
Nautical Twilight 4:12 AM CDT 9:45 PM CDT
Astronomical Twilight 3:22 AM CDT 10:34 PM CDT
Moon 11:57 PM CDT (6/28) 11:36 AM CDT (6/28)
Length of Visible Light 16h 08m
Length of Day
15h 02m
Waning Gibbous, 66% of the Moon is Illuminated
Jun 28
Waning Gibbous
Jun 29
Last Quarter
Jul 8
New
Jul 15
First Quarter
Jul 22
Full

Hourly Weather History & Observations

Time (CDT) Temp. Heat Index Dew Point Humidity Pressure Visibility Wind Dir Wind Speed Gust Speed Precip Events Conditions
12:56 AM 73.9 °F - 63.9 °F 71% 29.76 in 10.0 mi West 11.5 mph - N/A   Clear
1:56 AM 72.0 °F - 64.9 °F 78% 29.74 in 10.0 mi West 10.4 mph - N/A   Clear
2:56 AM 70.0 °F - 64.9 °F 84% 29.74 in 10.0 mi West 8.1 mph - N/A   Clear
3:56 AM 68.9 °F - 64.9 °F 87% 29.73 in 10.0 mi West 9.2 mph - N/A   Clear
4:56 AM 68.9 °F - 63.9 °F 84% 29.72 in 10.0 mi West 10.4 mph - N/A   Clear
5:56 AM 68.0 °F - 63.0 °F 84% 29.73 in 10.0 mi West 10.4 mph - N/A   Clear
6:56 AM 70.9 °F - 63.0 °F 76% 29.74 in 10.0 mi West 9.2 mph - N/A   Clear
7:56 AM 72.9 °F - 63.9 °F 73% 29.74 in 10.0 mi West 11.5 mph - N/A   Clear
8:56 AM 77.0 °F - 63.9 °F 64% 29.73 in 10.0 mi West 12.7 mph - N/A   Clear
9:56 AM 79.0 °F - 63.0 °F 58% 29.72 in 10.0 mi West 13.8 mph - N/A   Clear
10:56 AM 81.9 °F 82.8 °F 61.9 °F 51% 29.71 in 10.0 mi WNW 13.8 mph - N/A   Clear
11:56 AM 82.9 °F 83.7 °F 61.9 °F 49% 29.70 in 10.0 mi NNW 16.1 mph - N/A   Scattered Clouds
12:56 PM 81.9 °F 82.2 °F 59.9 °F 47% 29.70 in 10.0 mi NW 16.1 mph 25.3 mph N/A   Scattered Clouds
1:56 PM 83.8 °F 83.8 °F 59.9 °F 44% 29.69 in 10.0 mi NNW 19.6 mph - N/A   Mostly Cloudy
2:56 PM 83.8 °F 82.8 °F 55.9 °F 38% 29.67 in 10.0 mi NW 15.0 mph 26.5 mph N/A   Mostly Cloudy
3:56 PM 83.8 °F 82.8 °F 55.9 °F 38% 29.65 in 10.0 mi WNW 21.9 mph 31.1 mph N/A   Partly Cloudy
4:56 PM 84.9 °F 83.9 °F 56.8 °F 38% 29.64 in 10.0 mi West 17.3 mph 29.9 mph N/A   Scattered Clouds
5:56 PM 79.9 °F - 55.9 °F 44% 29.65 in 10.0 mi WNW 19.6 mph 33.4 mph N/A   Mostly Cloudy
6:56 PM 73.9 °F - 63.0 °F 68% 29.65 in 10.0 mi WNW 15.0 mph - 0.00 in   Scattered Clouds
7:56 PM 75.9 °F - 61.9 °F 62% 29.65 in 10.0 mi NW 12.7 mph - N/A   Scattered Clouds
8:56 PM 74.8 °F - 61.0 °F 62% 29.65 in 10.0 mi NW 11.5 mph - 0.00 in   Mostly Cloudy
9:56 PM 72.9 °F - 61.0 °F 66% 29.65 in 10.0 mi NW 10.4 mph - N/A   Clear
10:56 PM 70.9 °F - 63.9 °F 78% 29.65 in 10.0 mi NW 8.1 mph - 0.00 in Rain Light Rain
11:56 PM 68.9 °F - 63.0 °F 81% 29.63 in 10.0 mi WNW 6.9 mph - 0.00 in   Partly Cloudy